Location: Forestville
(38.4740°N, 122.8890°W)
Time: 17:05:55
(UTC-07:00)

Amateur Radio Satellites - All Passes

Search period start: 30 May 2016 16:35
Search period end: 31 May 2016 16:35
Location: Forestville, 38.4740°N, 122.8890°W

Satellite Date Start Highest point End Downlink Frequencies (MHz)
Time Altitude Azimuth
Cosmos 2491 30 May 16:38:34 16:46:41 45° 272° (W) 16:54:44 435.465 / 435.565
ITAMSAT 1 30 May 16:55:18 16:56:08 10° 270° (W) 16:56:58 435.822/435.867
NOAA 18 30 May 16:55:35 16:57:00 11° 58° (ENE) 16:58:26 137.9125
KKS-1 30 May 16:56:45 17:01:12 77° 103° (ESE) 17:05:36 437.445
BEESAT 30 May 16:57:48 17:00:30 15° 297° (WNW) 17:03:13 436.000
RS-15 30 May 17:11:29 17:22:36 70° 114° (ESE) 17:34:22 29.354- 29.394
CUTE-I 30 May 17:13:50 17:16:05 13° 60° (ENE) 17:18:20 437.470
HORYU 2 30 May 17:19:41 17:24:06 76° 258° (WSW) 17:28:31 437.375
BRITE-PL 30 May 17:22:07 17:25:57 19° 64° (ENE) 17:29:46 437.365/2234.400
STARS 30 May 17:23:10 17:27:32 76° 102° (ESE) 17:31:54 437.465
Cosmos 2504 30 May 17:23:28 17:30:17 47° 89° (E) 17:37:30 435.465 / 435.565
PCSat 30 May 17:28:05 17:31:38 17° 46° (NE) 17:35:11 145.827
GOMX 1 30 May 17:32:59 17:33:24 10° 61° (ENE) 17:33:51 467.674
CUBESAT XI-V 30 May 17:35:37 17:38:39 17° 92° (E) 17:41:38 437.345
MOZHAYETS 4 30 May 17:36:55 17:41:24 51° 287° (WNW) 17:45:53
NOAA 15 30 May 17:48:09 17:53:03 39° 69° (ENE) 17:57:58 137.62
Cubesat XI-IV 30 May 18:05:28 18:10:20 38° 69° (ENE) 18:15:14 437.490
AO-7 30 May 18:15:26 18:18:38 13° 271° (W) 18:21:51 29.400- 29.500
LilacSat-2 30 May 18:15:48 18:19:17 35° 73° (ENE) 18:22:45 437.200
O/OREOS (USA 219) 30 May 18:24:59 18:28:21 20° 59° (ENE) 18:31:42 437.305
NOAA 18 30 May 18:31:20 18:36:48 84° 75° (ENE) 18:42:17 137.9125
YUBILEINY 30 May 18:34:56 18:40:45 19° 295° (WNW) 18:46:37 435.215
CUTE-I 30 May 18:50:06 18:55:24 81° 257° (WSW) 19:00:45 437.470
BRITE-PL 30 May 18:58:15 19:03:51 62° 260° (W) 19:09:29 437.365/2234.400
GOMX 1 30 May 19:05:10 19:10:39 79° 76° (ENE) 19:16:00 467.674
PCSat 30 May 19:10:12 19:15:37 74° 244° (WSW) 19:21:00 145.827
CUBESAT XI-V 30 May 19:11:44 19:16:14 45° 287° (WNW) 19:20:41 437.345
Cosmos 2504 30 May 19:17:43 19:23:54 29° 289° (WNW) 19:30:25 435.465 / 435.565
BEESAT 2 30 May 19:21:39 19:24:00 15° 46° (NE) 19:26:21 435.950
RS-15 30 May 19:25:30 19:35:57 38° 319° (NW) 19:46:59 29.354- 29.394
NOAA 15 30 May 19:28:38 19:32:54 24° 265° (W) 19:37:11 137.62
DOVE 4 30 May 19:36:39 19:41:52 78° 77° (ENE) 19:46:51 437.250
ISS 30 May 19:40:55 19:43:25 20° 131° (SE) 19:45:54 145.825
CINEMA 3 30 May 19:42:52 19:46:44 26° 70° (ENE) 19:50:29 145.822/145.860
HO-68 30 May 19:43:24 19:50:02 43° 66° (ENE) 19:56:41 435.675
Cubesat XI-IV 30 May 19:46:12 19:50:29 25° 265° (W) 19:54:48 437.490
BEESAT 3 30 May 19:48:25 19:52:13 44° 55° (NE) 19:55:59 437.485
LilacSat-2 30 May 19:51:45 19:53:42 14° 267° (W) 19:55:39 437.200
AUBIESAT-1 30 May 19:57:38 20:01:32 49° 70° (ENE) 20:05:12 437.475
O/OREOS (USA 219) 30 May 20:03:46 20:07:51 35° 255° (WSW) 20:11:55 437.305
M-CUBED/EXP-1 PRIME 30 May 20:07:17 20:11:26 83° 72° (ENE) 20:15:15 437.505
CUBEBUG 2 30 May 20:10:00 20:12:26 15° 66° (ENE) 20:14:49 437.445
SEEDS 30 May 20:12:36 20:16:21 34° 72° (ENE) 20:20:09 437.485
CANX-2 30 May 20:16:42 20:20:50 63° 76° (ENE) 20:25:02 2200.000
NOAA 18 30 May 20:16:44 20:18:04 11° 270° (W) 20:19:24 137.9125
STRAND 1 30 May 20:17:19 20:22:25 60° 101° (E) 20:27:30 437.568
UWE-3 30 May 20:30:38 20:33:23 17° 67° (ENE) 20:36:06 435.000/436.395/437.385
PHONESAT 2.4 30 May 20:32:19 20:34:59 25° 151° (SSE) 20:37:39 2401.200-2431.200
GONETS M04 30 May 20:32:51 20:38:14 18° 78° (ENE) 20:43:34
CUTE 1.7 + AOD 2 30 May 20:43:13 20:47:23 72° 258° (WSW) 20:51:38 437.475
GOMX 1 30 May 20:47:00 20:49:10 12° 271° (W) 20:51:18 467.674
AAUSAT CUBESAT 2 30 May 20:50:39 20:54:40 53° 74° (ENE) 20:58:43 437.432
PRISM 30 May 20:51:34 20:54:47 21° 95° (E) 20:57:59 437.425
COMPASS 1 30 May 20:51:37 20:55:43 70° 76° (ENE) 20:59:53 437.405
BEESAT 2 30 May 20:58:15 21:02:09 52° 243° (WSW) 21:06:01 435.950
Oscar 11 30 May 21:02:08 21:05:49 28° 70° (ENE) 21:09:31 145.826/435.025
AIST 1 30 May 21:10:32 21:14:52 62° 94° (E) 21:19:14
ISS 30 May 21:16:35 21:19:40 38° 327° (NNW) 21:22:45 145.825
DOVE 4 30 May 21:18:34 21:19:57 11° 270° (W) 21:21:20 437.250
CINEMA 3 30 May 21:19:45 21:23:47 28° 264° (W) 21:27:40 145.822/145.860
ZACube-1 30 May 21:23:11 21:27:10 43° 73° (ENE) 21:31:07 437.345
BEESAT 3 30 May 21:27:26 21:29:31 14° 251° (WSW) 21:31:36 437.485
HO-68 30 May 21:31:27 21:37:47 34° 263° (W) 21:44:11 435.675
AUBIESAT-1 30 May 21:34:52 21:36:10 11° 261° (W) 21:37:28 437.475
CUBEBUG 2 30 May 21:44:32 21:48:42 45° 261° (W) 21:52:47 437.445
RS-15 30 May 21:45:43 21:53:26 19° 353° (N) 22:01:21 29.354- 29.394
Cosmos 2499 30 May 21:47:56 21:54:10 32° 85° (E) 22:00:48 435.465 / 435.565
SEEDS 30 May 21:49:19 21:52:08 18° 267° (W) 21:54:59 437.485
STRAND 1 30 May 21:57:58 22:01:04 16° 297° (WNW) 22:04:09 437.568
FUNcube-1 30 May 21:59:00 22:03:12 74° 258° (WSW) 22:07:22 145.935
AIST 2 30 May 21:59:56 22:03:52 39° 54° (NE) 22:07:46 435.215
UWE-3 30 May 22:05:35 22:09:33 37° 262° (W) 22:13:29 435.000/436.395/437.385
PHONESAT 2.4 30 May 22:08:23 22:11:32 82° 352° (N) 22:14:41 2401.200-2431.200
CUSAT 1 30 May 22:13:39 22:20:34 40° 71° (ENE) 22:26:14 437.405
GONETS M04 30 May 22:25:02 22:33:51 84° 277° (W) 22:42:40
DELFI C3 30 May 22:25:37 22:29:33 63° 260° (W) 22:33:31 145.870
PRISM 30 May 22:26:30 22:30:05 28° 290° (WNW) 22:33:38 437.425
AAUSAT CUBESAT 2 30 May 22:29:19 22:30:27 11° 269° (W) 22:31:36 437.432
HUMSAT D 30 May 22:35:12 22:39:14 68° 76° (ENE) 22:43:18 437.325/437.525
Oscar 11 30 May 22:38:34 22:41:55 22° 265° (W) 22:45:18 145.826/435.025
DANDE 30 May 22:40:03 22:47:39 37° 70° (ENE) 22:54:19 436.750
AIST 1 30 May 22:51:54 22:52:54 11° 291° (WNW) 22:53:53
ISS 30 May 22:55:53 22:56:51 11° 346° (NNW) 22:57:48 145.825
UNISAT 6 30 May 22:56:26 23:00:12 28° 97° (E) 23:04:01 437.425
ZACube-1 30 May 23:01:28 23:03:39 14° 268° (W) 23:05:49 437.345
TIGRISAT 30 May 23:02:37 23:06:28 31° 97° (E) 23:10:24 435.000
DX 1 30 May 23:04:35 23:07:09 15° 65° (ENE) 23:09:43 434.975-435.025
CUBEBUG 1 30 May 23:05:18 23:08:26 19° 67° (ENE) 23:11:33 437.445
ESTCUBE 1 30 May 23:14:46 23:18:52 35° 71° (ENE) 23:22:59 437.505/2401.250
VELOX 1 30 May 23:21:25 23:25:12 28° 69° (ENE) 23:28:59 145.980
QB50P1 30 May 23:33:34 23:35:04 12° 91° (E) 23:36:35 145.935-145.965
POPSAT HIP 1 30 May 23:33:38 23:35:02 11° 91° (E) 23:36:27 437.405
QB50P2 30 May 23:36:37 23:38:48 14° 92° (E) 23:40:58 145.880/145.840
ANTELSAT 30 May 23:37:05 23:41:26 84° 103° (ESE) 23:45:51 437.575/2403.000
POLYITAN 1 30 May 23:39:02 23:41:17 14° 93° (E) 23:43:31 437.675
AIST 2 30 May 23:39:17 23:42:01 17° 250° (WSW) 23:44:45 435.215
Cosmos 2499 30 May 23:40:02 23:46:57 44° 285° (WNW) 23:54:23 435.465 / 435.565
50 SAT 30 May 23:42:16 23:45:46 48° 75° (ENE) 23:49:19 437.505
UKube-1 30 May 23:45:15 23:49:08 33° 70° (ENE) 23:53:02 .
PHONESAT 2.4 30 May 23:45:18 23:48:24 57° 3° (N) 23:51:30 2401.200-2431.200
NANOSAT C BR1 30 May 23:48:42 23:51:29 17° 94° (E) 23:54:16 145.865
CUSAT 1 30 May 23:56:04 00:02:28 34° 274° (W) 00:07:46 437.405
SO-50 30 May 23:56:48 00:01:40 72° 119° (ESE) 00:06:33 436.795
AISAT 30 May 23:57:14 00:01:41 74° 74° (ENE) 00:06:08 437.250
RS-15 31 May 00:02:17 00:12:08 27° 29° (NNE) 00:22:01 29.354- 29.394
DANDE 31 May 00:22:49 00:30:38 46° 271° (W) 00:37:22 436.750
DUCHIFAT 1 31 May 00:24:29 00:28:28 42° 99° (E) 00:32:25 145.980
GONETS M04 31 May 00:27:01 00:32:02 16° 297° (WNW) 00:37:04
BUGSAT 1 31 May 00:27:39 00:30:37 20° 95° (E) 00:33:34 437.445
UNISAT 6 31 May 00:33:21 00:36:47 23° 291° (WNW) 00:40:14 437.425
DX 1 31 May 00:38:43 00:42:56 46° 260° (W) 00:47:11 434.975-435.025
TIGRISAT 31 May 00:39:44 00:42:59 21° 292° (WNW) 00:46:16 435.000
CUBEBUG 1 31 May 00:40:18 00:44:25 37° 262° (W) 00:48:33 437.445
SPROUT 31 May 00:49:36 00:53:54 78° 257° (WSW) 00:58:12 437.525
ESTCUBE 1 31 May 00:52:24 00:55:44 20° 266° (W) 00:59:06 437.505/2401.250
VELOX 1 31 May 00:57:55 01:01:36 25° 264° (W) 01:05:18 145.980
TISAT 1 31 May 01:00:09 01:03:59 35° 72° (ENE) 01:07:49 437.305
JAS-2 31 May 01:05:32 01:11:27 27° 91° (E) 01:16:50 435.910
POPSAT HIP 1 31 May 01:07:02 01:11:07 52° 286° (WNW) 01:15:12 437.405
QB50P1 31 May 01:07:04 01:11:09 51° 286° (WNW) 01:15:12 145.935-145.965
QB50P2 31 May 01:10:48 01:14:48 44° 287° (WNW) 01:18:48 145.880/145.840
POLYITAN 1 31 May 01:13:18 01:17:17 43° 287° (WNW) 01:21:15 437.675
PHONESAT 2.4 31 May 01:22:05 01:25:11 63° 200° (SSW) 01:28:17 2401.200-2431.200
UKube-1 31 May 01:22:06 01:25:14 19° 265° (W) 01:28:23 .
NANOSAT C BR1 31 May 01:23:30 01:27:19 35° 289° (WNW) 01:31:07 145.865
SO-50 31 May 01:39:28 01:42:40 17° 317° (NW) 01:45:52 436.795
SWISSCUBE 31 May 01:54:39 01:58:47 30° 69° (ENE) 02:02:56 437.505
DUCHIFAT 1 31 May 02:01:24 02:03:48 15° 294° (WNW) 02:06:11 145.980
BUGSAT 1 31 May 02:02:33 02:06:00 28° 290° (WNW) 02:09:25 437.445
ITUPSAT 1 31 May 02:02:49 02:07:02 33° 69° (ENE) 02:11:17 437.325
ISS 31 May 02:09:25 02:12:00 21° 27° (NNE) 02:14:34 145.825
RS-15 31 May 02:14:52 02:27:15 74° 56° (ENE) 02:39:30 29.354- 29.394
BEESAT 31 May 02:23:19 02:27:56 54° 73° (ENE) 02:32:35 436.000
Oscar 19 31 May 02:35:12 02:40:21 70° 102° (ESE) 02:45:27 437.125/150
TISAT 1 31 May 02:36:54 02:39:43 17° 266° (W) 02:42:34 437.305
YUBILEINY 31 May 02:46:28 02:54:31 39° 74° (ENE) 03:02:32 435.215
JAS-2 31 May 02:49:49 02:56:48 50° 291° (WNW) 03:03:00 435.910
PHONESAT 2.4 31 May 02:59:56 03:01:31 13° 214° (SW) 03:03:06 2401.200-2431.200
MOZHAYETS 4 31 May 03:03:02 03:04:51 12° 63° (ENE) 03:06:42
Cosmos 2504 31 May 03:17:46 03:23:06 17° 65° (ENE) 03:28:31 435.465 / 435.565
ITAMSAT 1 31 May 03:25:34 03:30:14 32° 97° (E) 03:34:52 435.822/435.867
Gurwin Techsat 1B 31 May 03:28:54 03:34:15 87° 285° (WNW) 03:39:35 435.225
SWISSCUBE 31 May 03:32:37 03:36:32 26° 264° (W) 03:40:30 437.505
Cosmos 2491 31 May 03:40:51 03:49:06 46° 88° (E) 03:57:19 435.465 / 435.565
ITUPSAT 1 31 May 03:41:03 03:44:53 24° 265° (W) 03:48:44 437.325
ISS 31 May 03:45:27 03:48:37 49° 223° (SW) 03:51:46 145.825
KKS-1 31 May 03:53:03 03:57:26 58° 74° (ENE) 04:01:50 437.445
BEESAT 31 May 04:03:32 04:06:02 14° 268° (W) 04:08:33 436.000
Oscar 19 31 May 04:16:27 04:19:02 14° 298° (WNW) 04:21:36 437.125/150
STARS 31 May 04:18:05 04:22:23 54° 74° (ENE) 04:26:41 437.465
AO-7 31 May 04:19:52 04:27:40 41° 100° (E) 04:35:23 29.400- 29.500
RS-15 31 May 04:28:33 04:38:42 32° 257° (WSW) 04:48:45 29.354- 29.394
MOZHAYETS 4 31 May 04:36:56 04:41:27 64° 259° (W) 04:46:01
CUBESAT XI-V 31 May 04:38:12 04:40:48 15° 64° (ENE) 04:43:23 437.345
YUBILEINY 31 May 04:43:12 04:51:19 44° 272° (W) 04:59:27 435.215
ITAMSAT 1 31 May 05:05:07 05:09:35 29° 293° (WNW) 05:14:02 435.822/435.867
Cosmos 2504 31 May 05:08:59 05:17:36 87° 84° (E) 05:26:30 435.465 / 435.565
Gurwin Techsat 1B 31 May 05:11:59 05:13:22 11° 301° (WNW) 05:14:45 435.225
HORYU 2 31 May 05:12:39 05:16:08 22° 95° (E) 05:19:36 437.375
AO-85 31 May 05:22:56 05:28:19 64° 117° (ESE) 05:33:37 145.980
KKS-1 31 May 05:32:41 05:34:20 12° 269° (W) 05:36:00 437.445
Cosmos 2491 31 May 05:38:00 05:46:00 37° 287° (WNW) 05:54:01 435.465 / 435.565
STARS 31 May 05:57:16 05:59:03 12° 268° (W) 06:00:50 437.465
NOAA 15 31 May 06:05:57 06:09:08 16° 92° (E) 06:12:19 137.62
JUGNU 31 May 06:08:56 06:10:58 12° 176° (S) 06:13:01 437.505
AO-7 31 May 06:12:37 06:20:22 44° 297° (WNW) 06:28:08 29.400- 29.500
CUBESAT XI-V 31 May 06:13:05 06:17:40 55° 260° (W) 06:22:18 437.345
Cubesat XI-IV 31 May 06:25:04 06:28:30 17° 92° (E) 06:31:56 437.490
HORYU 2 31 May 06:48:47 06:52:41 31° 290° (WNW) 06:56:35 437.375
NOAA 18 31 May 06:55:02 07:00:10 40° 99° (E) 07:05:18 137.9125
Cosmos 2504 31 May 07:04:35 07:09:54 18° 281° (W) 07:15:17 435.465 / 435.565
AO-85 31 May 07:05:06 07:09:14 21° 314° (NW) 07:13:16 145.980
BRITE-PL 31 May 07:05:35 07:10:23 50° 98° (E) 07:14:47 437.365/2234.400
CUTE-I 31 May 07:08:42 07:13:51 45° 99° (E) 07:18:58 437.470
GOMX 1 31 May 07:10:01 07:13:36 23° 93° (E) 07:17:00 467.674
AIST 1 31 May 07:20:46 07:22:54 13° 71° (ENE) 07:25:00
LilacSat-2 31 May 07:24:20 07:28:07 68° 101° (E) 07:31:54 437.200
STRAND 1 31 May 07:31:39 07:36:43 74° 75° (ENE) 07:41:50 437.568
DOVE 4 31 May 07:38:26 07:41:36 20° 94° (E) 07:44:42 437.250
PRISM 31 May 07:40:44 07:42:52 14° 65° (ENE) 07:45:01 437.425
Cosmos 2499 31 May 07:42:27 07:44:53 11° 59° (ENE) 07:47:19 435.465 / 435.565
NOAA 15 31 May 07:44:03 07:49:15 58° 288° (WNW) 07:54:25 137.62
JUGNU 31 May 07:57:29 07:59:05 11° 187° (S) 08:00:41 437.505
Cubesat XI-IV 31 May 08:03:39 08:08:53 56° 288° (WNW) 08:14:07 437.490
CANX-2 31 May 08:05:04 08:06:51 12° 91° (E) 08:08:39 2200.000
PCSat 31 May 08:09:11 08:12:38 17° 105° (ESE) 08:16:05 145.827
SRMSAT 31 May 08:10:16 08:12:12 12° 175° (S) 08:14:08 437.500
SO-50 31 May 08:30:01 08:34:28 41° 53° (NE) 08:38:46 436.795
CUTE 1.7 + AOD 2 31 May 08:30:12 08:33:31 21° 94° (E) 08:36:47 437.475
O/OREOS (USA 219) 31 May 08:35:26 08:39:23 29° 104° (ESE) 08:43:20 437.305
NOAA 18 31 May 08:36:07 08:40:35 26° 295° (WNW) 08:45:04 137.9125
GONETS M04 31 May 08:37:26 08:45:42 45° 76° (ENE) 08:53:55
COMPASS 1 31 May 08:37:45 08:39:36 13° 91° (E) 08:41:27 437.405
BRITE-PL 31 May 08:45:20 08:48:20 16° 297° (WNW) 08:51:12 437.365/2234.400
GOMX 1 31 May 08:47:50 08:51:42 28° 291° (WNW) 08:55:22 467.674
CUTE-I 31 May 08:49:30 08:53:34 22° 295° (WNW) 08:57:36 437.470
AIST 1 31 May 08:56:37 09:00:46 46° 267° (W) 09:04:52
HO-68 31 May 08:59:38 09:06:37 51° 101° (E) 09:13:33 435.675
AUBIESAT-1 31 May 09:12:03 09:15:11 39° 105° (ESE) 09:18:23 437.475
PRISM 31 May 09:13:45 09:17:45 47° 260° (W) 09:21:48 437.425
STRAND 1 31 May 09:14:48 09:16:24 11° 270° (W) 09:18:02 437.568
CINEMA 3 31 May 09:15:05 09:19:14 76° 102° (ESE) 09:23:23 145.822/145.860
DOVE 4 31 May 09:15:39 09:19:22 29° 290° (WNW) 09:22:57 437.250
M-CUBED/EXP-1 PRIME 31 May 09:22:24 09:25:40 75° 107° (ESE) 09:28:59 437.505
Cosmos 2499 31 May 09:31:10 09:39:48 62° 79° (E) 09:48:35 435.465 / 435.565
SEEDS 31 May 09:32:54 09:37:11 83° 102° (ESE) 09:41:26 437.485
CUBEBUG 2 31 May 09:36:29 09:40:23 37° 98° (E) 09:44:22 437.445
CANX-2 31 May 09:38:49 09:42:59 51° 286° (WNW) 09:47:09 2200.000
BEESAT 3 31 May 09:41:13 09:41:35 10° 108° (ESE) 09:41:56 437.485
FUNcube-1 31 May 09:48:49 09:52:07 22° 95° (E) 09:55:28 145.935
PCSat 31 May 09:50:09 09:55:29 59° 301° (WNW) 10:00:52 145.827
UNISAT 6 31 May 09:54:26 09:57:44 21° 68° (ENE) 10:00:59 437.425
UWE-3 31 May 09:56:04 10:00:05 43° 99° (E) 10:04:11 435.000/436.395/437.385
SRMSAT 31 May 09:58:40 10:00:28 11° 186° (S) 10:02:16 437.500
TIGRISAT 31 May 10:00:21 10:03:47 23° 69° (ENE) 10:07:11 435.000
CUTE 1.7 + AOD 2 31 May 10:05:36 10:09:20 30° 289° (WNW) 10:13:05 437.475
DELFI C3 31 May 10:05:37 10:08:24 18° 94° (E) 10:11:10 145.870
AAUSAT CUBESAT 2 31 May 10:09:33 10:13:44 65° 283° (WNW) 10:17:53 437.432
SO-50 31 May 10:11:15 10:14:37 20° 250° (WSW) 10:17:55 436.795
COMPASS 1 31 May 10:11:20 10:15:25 48° 286° (WNW) 10:19:28 437.405
O/OREOS (USA 219) 31 May 10:14:59 10:18:45 25° 300° (WNW) 10:22:30 437.305
HUMSAT D 31 May 10:21:50 10:23:33 12° 92° (E) 10:25:17 437.325/437.525
Oscar 11 31 May 10:25:56 10:30:18 73° 102° (ESE) 10:34:38 145.826/435.025
ANTELSAT 31 May 10:34:22 10:38:38 60° 75° (ENE) 10:42:51 437.575/2403.000
GONETS M04 31 May 10:34:36 10:42:16 37° 274° (W) 10:49:55
NANOSAT C BR1 31 May 10:41:04 10:42:29 12° 64° (ENE) 10:43:55 145.865
HO-68 31 May 10:47:57 10:53:58 30° 298° (WNW) 10:59:58 435.675
ZACube-1 31 May 10:48:31 10:52:44 69° 284° (WNW) 10:57:01 437.345
BEESAT 2 31 May 10:48:48 10:52:26 35° 115° (ESE) 10:56:06 435.950
AUBIESAT-1 31 May 10:48:52 10:49:22 10° 299° (WNW) 10:49:52 437.475
CUSAT 1 31 May 11:11:59 11:18:11 44° 89° (E) 11:25:29 437.405
CUBEBUG 2 31 May 11:14:03 11:16:44 17° 293° (WNW) 11:19:27 437.445
BEESAT 3 31 May 11:14:51 11:18:43 59° 302° (WNW) 11:22:39 437.485
DUCHIFAT 1 31 May 11:15:11 11:18:42 26° 70° (ENE) 11:22:12 145.980
BUGSAT 1 31 May 11:17:12 11:19:06 13° 65° (ENE) 11:21:00 437.445
JAS-2 31 May 11:17:52 11:21:20 14° 54° (NE) 11:24:50 435.910
FUNcube-1 31 May 11:24:43 11:28:20 28° 289° (WNW) 11:32:01 145.935
Cosmos 2499 31 May 11:25:18 11:32:18 28° 277° (W) 11:39:23 435.465 / 435.565
UNISAT 6 31 May 11:30:27 11:34:16 30° 263° (W) 11:38:04 437.425
UWE-3 31 May 11:33:48 11:36:12 15° 294° (WNW) 11:38:39 435.000/436.395/437.385
TIGRISAT 31 May 11:36:39 11:40:21 27° 264° (W) 11:44:01 435.000
PCSat 31 May 11:39:31 11:40:03 10° 321° (NW) 11:40:35 145.827
DELFI C3 31 May 11:39:43 11:43:18 31° 289° (WNW) 11:46:53 145.870
DANDE 31 May 11:45:48 11:51:05 37° 87° (E) 11:57:42 436.750
AISAT 31 May 11:50:19 11:52:54 15° 93° (E) 11:55:27 437.250
HUMSAT D 31 May 11:55:23 11:59:26 49° 286° (WNW) 12:03:30 437.325/437.525
QB50P1 31 May 11:57:31 12:01:46 87° 257° (WSW) 12:06:00 145.935-145.965
POPSAT HIP 1 31 May 11:57:34 12:01:47 88° 244° (WSW) 12:06:02 437.405
AIST 2 31 May 11:58:43 12:00:04 11° 108° (ESE) 12:01:24 435.215
QB50P2 31 May 12:01:25 12:05:38 74° 257° (WSW) 12:09:53 145.880/145.840
POLYITAN 1 31 May 12:03:55 12:08:08 72° 258° (WSW) 12:12:22 437.675
Oscar 11 31 May 12:05:38 12:05:48 10° 297° (WNW) 12:05:59 145.826/435.025
NANOSAT C BR1 31 May 12:13:32 12:17:42 59° 260° (W) 12:21:52 145.865
ANTELSAT 31 May 12:15:03 12:15:42 10° 269° (W) 12:16:20 437.575/2403.000
Oscar 19 31 May 12:16:03 12:17:06 11° 59° (ENE) 12:18:08 437.125/150
BEESAT 2 31 May 12:27:25 12:30:23 20° 312° (NW) 12:33:21 435.950
DX 1 31 May 12:28:27 12:32:21 31° 98° (E) 12:36:12 434.975-435.025
CUBEBUG 1 31 May 12:30:07 12:34:17 42° 99° (E) 12:38:23 437.445
SPROUT 31 May 12:37:55 12:40:59 19° 94° (E) 12:44:03 437.525
ESTCUBE 1 31 May 12:44:50 12:49:24 86° 282° (WNW) 12:53:56 437.505/2401.250
50 SAT 31 May 12:46:21 12:50:05 80° 101° (ESE) 12:53:49 437.505
VELOX 1 31 May 12:48:30 12:52:55 67° 102° (ESE) 12:57:17 145.980
BUGSAT 1 31 May 12:49:58 12:54:02 51° 260° (W) 12:58:06 437.445
DUCHIFAT 1 31 May 12:50:58 12:54:20 23° 264° (W) 12:57:43 145.980
CUSAT 1 31 May 12:54:16 13:00:24 35° 290° (WNW) 13:07:31 437.405
JAS-2 31 May 12:57:26 13:04:49 67° 72° (ENE) 13:12:38 435.910
UKube-1 31 May 13:09:09 13:13:29 76° 102° (ESE) 13:17:46 .
Gurwin Techsat 1B 31 May 13:11:21 13:14:27 16° 62° (ENE) 13:17:35 435.225
AISAT 31 May 13:25:23 13:29:35 44° 288° (WNW) 13:33:44 437.250
DANDE 31 May 13:28:24 13:33:52 36° 291° (WNW) 13:40:41 436.750
AIST 2 31 May 13:33:57 13:38:00 58° 303° (WNW) 13:42:06 435.215
Oscar 19 31 May 13:50:22 13:55:35 87° 74° (ENE) 14:00:49 437.125/150
Cosmos 2491 31 May 13:53:54 14:00:01 20° 65° (ENE) 14:06:04 435.465 / 435.565
AO-85 31 May 13:57:08 14:01:22 33° 51° (NE) 14:05:16 145.980
DX 1 31 May 14:05:02 14:08:19 21° 293° (WNW) 14:11:35 434.975-435.025
CUBEBUG 1 31 May 14:07:31 14:10:12 16° 294° (WNW) 14:12:52 437.445
SPROUT 31 May 14:13:12 14:16:59 32° 289° (WNW) 14:20:45 437.525
TISAT 1 31 May 14:20:32 14:24:43 79° 102° (ESE) 14:28:53 437.305
BEESAT 31 May 14:26:11 14:29:02 16° 92° (E) 14:31:52 436.000
VELOX 1 31 May 14:27:29 14:28:47 11° 297° (WNW) 14:30:05 145.980
ITAMSAT 1 31 May 14:42:02 14:46:53 43° 70° (ENE) 14:51:46 435.822/435.867
JAS-2 31 May 14:44:31 14:50:19 24° 270° (W) 14:56:25 435.910
Gurwin Techsat 1B 31 May 14:48:35 14:53:50 65° 258° (WSW) 14:59:08 435.225
AO-7 31 May 15:17:09 15:25:00 49° 64° (ENE) 15:32:54 29.400- 29.500
SWISSCUBE 31 May 15:33:06 15:37:56 89° 113° (ESE) 15:42:44 437.505
AO-85 31 May 15:38:04 15:41:35 23° 250° (WSW) 15:44:52 145.980
ITUPSAT 1 31 May 15:41:44 15:46:34 85° 284° (WNW) 15:51:23 437.325
YUBILEINY 31 May 15:45:29 15:53:35 46° 88° (E) 16:01:43 435.215
KKS-1 31 May 15:47:32 15:49:16 12° 91° (E) 15:51:00 437.445
Cosmos 2491 31 May 15:49:05 15:57:51 80° 265° (W) 16:06:32 435.465 / 435.565
Cosmos 2504 31 May 16:00:36 16:01:13 10° 75° (ENE) 16:01:50 435.465 / 435.565
BEESAT 31 May 16:02:27 16:07:04 50° 288° (WNW) 16:11:42 436.000
HORYU 2 31 May 16:09:52 16:12:52 18° 66° (ENE) 16:15:52 437.375
STARS 31 May 16:11:39 16:12:37 11° 91° (E) 16:13:35 437.465
ITAMSAT 1 31 May 16:22:38 16:26:30 21° 266° (W) 16:30:24 435.822/435.867
